Location: Doln� Pest?ice
(48.7167°N, 14.0333°E)
Time: 09:15:45
(UTC+00:00)

Daily predictions for brighter satellites

Satellite Brightness Start Highest point End
(mag) Time Altitude Azimuth Time Altitude Azimuth Time Altitude Azimuth
USA 215 4.5 19:26:17 10° ENE 19:32:23 43° N 19:38:28 10° WNW
CENTAUR R/B 4.2 19:25:52 10° NW 19:32:53 38° NNE 19:40:44 10° E
STARLINK-1240 3.6 19:30:00 10° SW 19:34:08 72° SSE 19:38:16 10° ENE
Meteor 1-4 Rocket 3.3 19:31:04 10° SSW 19:34:26 54° WNW 19:37:53 10° N
Cosmos 1437 Rocket 3.4 19:31:00 10° SSE 19:34:27 34° E 19:37:56 10° NNE
ATLAS 3B R/B 4.5 19:30:13 10° NW 19:35:39 25° NNE 19:41:12 10° ENE
STARLINK-1082 4.2 19:31:41 10° WNW 19:35:41 48° SW 19:39:39 10° SE
STARLINK-1206 4.5 19:32:53 10° W 19:36:57 54° NNW 19:41:03 10° ENE
Lacrosse 5 2.5 19:32:30 10° WNW 19:37:21 48° SW 19:42:11 10° SSE
STARLINK-1114 3.9 19:33:52 10° WNW 19:38:01 70° NNE 19:42:10 10° ESE
STARLINK-1203 3.6 19:34:35 10° WSW 19:38:47 77° SSE 19:43:00 10° ENE
STARLINK-1216 3.6 19:34:58 10° WSW 19:39:06 77° SSE 19:43:14 10° ENE
STARLINK-1100 4.3 19:36:39 10° WNW 19:40:37 44° SW 19:44:34 10° SE
ISS -2.4 19:37:42 10° W 19:40:41 30° SW 19:43:40 10° SSE
Cosmos 1975 4.4 19:38:09 10° NNW 19:41:51 35° W 19:45:30 10° SSW
CZ-2C R/B 3.1 19:36:52 10° N 19:42:29 73° WNW 19:48:04 10° SSW
STARLINK-1130 (DARKSAT) 3.8 19:38:52 10° WNW 19:43:01 73° NNE 19:47:10 10° ESE
STARLINK-1237 3.6 19:39:56 10° WSW 19:44:04 81° SSE 19:48:14 10° ENE
STARLINK-1083 4.4 19:41:41 10° WNW 19:45:36 41° SW 19:49:30 10° SSE
Cosmos 1674 Rocket 4.0 19:43:47 10° SSE 19:47:56 44° E 19:52:08 10° NNE
STARLINK-1084 3.8 19:43:51 10° WNW 19:48:01 76° NNE 19:52:09 10° ESE
Meteor 2-4 Rocket 3.8 19:42:44 10° SSW 19:48:05 79° WNW 19:53:29 10° N
STARLINK-1202 3.6 19:44:54 10° WSW 19:49:03 86° SSE 19:53:13 10° ENE
NOSS 2-2 (E) 4.1 19:46:48 10° S 19:49:53 28° ESE 19:53:17 10° ENE
EXPRESS MD2 3.8 19:48:04 10° SSW 19:50:53 36° SE 19:55:50 10° ENE
Cosmos 1378 Rocket 4.2 19:46:51 10° SSE 19:50:54 37° E 19:54:56 10° NNE
Cosmos 1833 Rocket 3.7 19:47:43 10° NW 19:52:59 42° WSW 19:58:13 10° S
STARLINK-1098 3.7 19:48:50 10° WNW 19:53:00 80° NNE 19:57:09 10° ESE
Cosmos 2297 4.0 19:49:22 10° S 19:54:46 47° ESE 20:00:14 10° NE
Cosmos 1943 Rocket 3.4 19:51:13 10° SSE 19:55:23 22° ESE 19:59:37 10° NE
STARLINK-1123 3.7 19:53:48 10° WNW 19:57:57 84° NNE 20:02:07 10° ESE
STARLINK-1246 3.7 19:54:53 10° WSW 19:59:02 86° NNW 20:03:12 10° ENE
Cosmos 2082 Rocket 2.7 19:54:08 10° NW 19:59:45 59° WSW 20:05:20 10° S
IGS 5A 3.5 19:55:47 10° SSE 19:59:53 69° ENE 20:04:03 10° N
Cosmos 1452 Rocket 3.7 19:56:07 10° SSW 20:01:25 83° WNW 20:06:45 10° NNE
Cosmos 332 Rocket 3.8 19:56:46 10° SSW 20:01:41 81° ESE 20:06:37 10° NNE
BREEZE-M DEB 3.6 19:59:51 10° S 20:01:51 22° SE 20:05:17 10° E
Intercosmos 24 4.1 19:58:52 10° NNW 20:02:24 62° W 20:06:09 10° S
Landsat 7 3.9 19:58:09 10° SSE 20:02:54 76° ENE 20:07:40 10° N
STARLINK-1097 3.6 19:58:48 10° WNW 20:02:58 88° NNE 20:07:07 10° ESE
STARLINK-1224 3.7 19:59:51 10° WSW 20:04:00 82° NNW 20:08:10 10° ENE
Meteor 1-23 Rocket 4.4 20:00:37 10° S 20:06:10 56° E 20:11:40 10° NNE
STARLINK-1099 3.6 20:03:46 10° WNW 20:07:56 87° SSW 20:11:54 11° ESE
Cosmos 1461 2.9 20:04:00 10° SSW 20:08:08 71° SE 20:12:30 10° NE
STARLINK-1225 3.8 20:04:51 10° WSW 20:09:00 78° NNW 20:13:10 10° ENE
Cosmos 1975 Rocket 4.5 20:07:29 12° SE 20:10:29 22° E 20:13:53 10° NE
SAR-Lupe-2 3.6 20:07:10 10° NNE 20:10:45 65° ESE 20:14:19 10° S
Cosmos 2369 Rocket 3.5 20:07:21 11° SSE 20:11:18 22° E 20:15:32 10° NE
STARLINK-1104 3.6 20:08:45 10° WNW 20:12:54 83° SSW 20:16:40 12° ESE
STARLINK-1230 3.9 20:09:50 10° WSW 20:13:59 74° NNW 20:18:08 10° ENE
STARLINK-1212 4.3 20:11:12 10° WNW 20:14:08 37° N 20:17:04 10° ENE
NOSS 2-2 (C) 3.6 20:11:04 10° S 20:14:23 38° ESE 20:18:02 10° NE
STARLINK-1105 4.3 20:11:41 10° WNW 20:14:36 37° N 20:17:31 10° ENE
CZ-4B DEB 4.4 20:11:56 13° SSE 20:14:48 66° ENE 20:18:08 10° N
STARLINK-1247 4.3 20:12:33 10° WNW 20:15:30 37° N 20:18:26 10° ENE
STARLINK-1227 4.3 20:13:03 10° WNW 20:15:59 37° N 20:18:54 10° ENE
STARLINK-1226 4.3 20:13:55 10° WNW 20:16:51 37° N 20:19:47 10° ENE
SL-4 R/B 4.1 20:16:43 10° W 20:17:19 10° WSW 20:17:56 10° WSW
STARLINK-1215 4.3 20:14:48 10° WNW 20:17:45 37° N 20:20:43 10° ENE
STARLINK-1144 3.6 20:13:44 10° WNW 20:17:54 78° SSW 20:21:27 14° ESE
ATLAS 2AS CENTAUR R/B 4.2 20:13:12 11° SSE 20:18:26 22° ESE 20:24:04 10° ENE
STARLINK-1243 3.9 20:14:50 10° WSW 20:18:59 71° NNW 20:23:07 10° ENE
SPOT 5 3.3 20:14:18 12° SSE 20:18:59 60° ENE 20:24:16 10° N
STARLINK-1217 4.3 20:16:38 10° WNW 20:19:35 37° N 20:22:31 10° ENE
NOSS 3-2 (A) 4.2 20:12:42 10° NW 20:20:03 72° NE 20:27:48 12° SE
STARLINK-1229 4.3 20:17:33 10° WNW 20:20:29 38° N 20:23:27 10° ENE
STARLINK-1270 4.3 20:18:26 10° WNW 20:21:23 38° N 20:24:21 10° ENE
STARLINK-1103 3.6 20:18:42 10° WNW 20:22:51 74° SSW 20:26:14 15° SE
STARLINK-1189 4.3 20:20:14 10° WNW 20:23:12 38° N 20:26:09 10° E
STARLINK-1236 4.0 20:19:49 10° WSW 20:23:57 68° NNW 20:28:05 10° ENE
STARLINK-1188 4.2 20:21:09 10° WNW 20:24:06 38° N 20:27:04 10° E
ERS-1 Rocket 3.0 20:19:40 13° SSE 20:24:11 74° ENE 20:29:15 10° N
STARLINK-1187 4.2 20:22:15 10° WNW 20:25:11 39° N 20:28:08 10° E
STARLINK-1191 4.2 20:23:35 10° WNW 20:26:32 38° N 20:29:29 10° E
STARLINK-1221 4.2 20:24:33 10° WNW 20:27:30 38° N 20:30:27 10° E
STARLINK-1101 3.6 20:23:41 10° WNW 20:27:49 69° SSW 20:31:01 16° SE
STARLINK-1222 4.2 20:25:24 10° WNW 20:28:21 39° N 20:31:18 10° E
Okean 2 4.2 20:25:56 16° SSE 20:28:44 34° E 20:32:31 10° NNE
Cosmos 1066 Rocket 4.1 20:23:51 10° S 20:29:14 82° E 20:34:37 10° NNE
STARLINK-1214 4.2 20:26:17 10° WNW 20:29:15 39° N 20:32:13 10° E
USA 245 3.7 20:27:56 10° S 20:30:41 35° WSW 20:33:05 10° NNW
USA 238 DEB 3.9 20:24:46 10° NW 20:31:59 79° NE 20:38:25 15° SE
USA 238 3.9 20:24:52 10° NW 20:32:05 78° NE 20:38:32 15° SE
STARLINK-1102 3.7 20:28:41 10° WNW 20:32:48 65° SSW 20:35:48 18° SE
STARLINK-1228 4.1 20:30:21 10° WNW 20:33:46 48° NNE 20:37:10 10° E
STARLINK-1269 4.2 20:29:49 10° W 20:33:56 62° NNW 20:38:04 10° ENE
Okean 1 Rocket 3.2 20:29:29 10° NNW 20:33:58 74° W 20:37:54 13° S
Cosmos 1805 3.3 20:30:20 10° N 20:34:16 71° ENE 20:37:07 18° SSE
Cosmos 1470 4.5 20:31:18 10° NNE 20:34:18 21° ENE 20:36:30 14° ESE
Resurs 01 Rocket 3.7 20:30:51 10° SSW 20:34:26 23° W 20:38:01 10° NW
Cosmos 2278 Rocket 4.0 20:29:35 10° WSW 20:34:44 34° NW 20:39:55 10° NNE
Nadezhda 4 Rocket 3.9 20:29:32 10° S 20:35:40 84° E 20:41:50 10° N
STARLINK-1235 4.0 20:34:00 10° WNW 20:37:08 45° NNE 20:40:16 10° E
STARLINK-1111 3.7 20:33:40 10° WNW 20:37:45 61° SSW 20:40:34 19° SE
STARLINK-1200 4.2 20:34:48 10° W 20:38:55 60° NNW 20:43:01 10° ENE
Cosmos 1455 Rocket 3.8 20:35:28 10° N 20:39:34 39° ENE 20:42:18 19° SE
STARLINK-1073 3.8 20:38:40 10° WNW 20:42:44 56° SSW 20:45:22 20° SE
SL-8 R/B 4.0 20:38:16 10° W 20:42:57 52° SSW 20:46:16 18° SE
STARLINK-1192 4.3 20:39:50 10° W 20:43:55 58° NNW 20:48:02 10° ENE
STARLINK-1121 3.9 20:43:39 10° WNW 20:47:42 53° SW 20:50:08 22° SE
ATLAS 3B CENTAUR R/B 4.3 20:39:58 10° SW 20:47:48 19° SSW 20:50:57 15° SSE
Terra 1.8 20:44:22 18° SSE 20:47:51 76° ENE 20:52:38 10° N
SL-4 R/B 3.2 20:44:10 10° SSW 20:48:15 29° SE 20:52:24 10° E
Cosmos 1110 Rocket 4.1 20:43:09 10° SSW 20:48:20 81° WNW 20:53:33 10° NNE
STARLINK-1244 4.4 20:44:49 10° W 20:48:55 56° NNW 20:53:00 10° ENE
SPOT 1/Viking Rocket 4.2 20:45:17 11° S 20:50:04 51° W 20:55:07 10° NNW
Cosmos 1842 3.7 20:48:52 22° SSE 20:51:01 43° E 20:54:44 10° NNE
CARTOSAT-1 3.8 20:47:49 16° S 20:51:11 66° WSW 20:55:30 10° NNW
Abrixas rocket 3.3 20:48:48 10° W 20:51:16 24° SSW 20:51:50 22° S
STARLINK-1106 4.0 20:48:40 10° WNW 20:52:40 49° SW 20:54:56 23° SSE
STARLINK-1138 4.4 20:49:50 10° W 20:53:55 54° NNW 20:57:59 10° ENE
STARLINK-1234 3.6 20:51:45 10° WNW 20:55:00 55° NNE 20:57:44 14° E
STARLINK-1112 4.1 20:53:38 10° WNW 20:57:36 45° SW 20:59:42 24° SSE
STARLINK-1143 4.5 20:54:49 10° W 20:58:53 53° NNW 21:02:58 10° ENE
STARLINK-1209 3.4 20:57:43 10° WNW 21:01:00 60° NNE 21:03:27 16° E
STARLINK-1128 4.2 20:58:38 10° WNW 21:02:33 42° SW 21:04:28 25° SSE
Cosmos 1331 Rocket 4.3 21:00:03 10° SSW 21:05:10 66° WNW 21:10:22 10° NNE
Aureole 2 Rocket 4.5 21:03:28 10° WSW 21:06:02 24° WNW 21:08:31 10° N
Cosmos 1733 3.3 21:03:33 10° NNW 21:07:22 72° W 21:09:32 24° S
STARLINK-1113 4.3 21:03:38 10° WNW 21:07:31 39° SW 21:09:15 26° SSE
Meteor 1-21 4.4 21:07:51 21° SSE 21:11:33 57° E 21:17:02 10° NNE
COSMOS 2455 4.1 21:09:45 20° SE 21:11:42 23° ESE 21:16:18 10° ENE
STARLINK-1119 4.4 21:08:40 10° WNW 21:12:30 36° SW 21:14:04 26° S
Cosmos 1378 4.0 21:09:41 11° SSW 21:13:02 46° WNW 21:16:38 10° N
USA 215 3.9 21:08:24 10° E 21:14:47 56° NNE 21:21:08 10° NW
Cosmos 1486 Rocket 4.0 21:09:41 10° NNW 21:15:01 83° ENE 21:18:13 25° SSE
Cosmos 1302 Rocket 4.0 21:10:13 12° SSW 21:15:13 84° ESE 21:20:33 10° NNE
Cosmos 1271 Rocket 3.5 21:14:22 28° SE 21:15:43 37° E 21:19:23 10° NNE
Cosmos 1544 Rocket 3.6 21:12:06 10° N 21:16:26 67° E 21:18:39 28° SSE
Cosmos 1242 Rocket 2.8 21:15:26 31° SSE 21:16:54 54° E 21:20:31 10° NNE
MTI 3.6 21:14:23 10° NNE 21:17:33 86° W 21:18:58 30° SSW
STARLINK-60 3.2 21:20:10 41° SE 21:20:11 41° SE 21:23:13 10° ENE
Cosmos 1092 Rocket 4.1 21:15:31 12° SSW 21:21:15 72° W 21:27:26 10° N
NOSS 2-2 (D) 4.0 21:19:17 10° WSW 21:22:48 52° NW 21:26:54 10° NE
CENTAUR R/B 3.2 21:16:35 10° NW 21:24:35 90° ENE 21:31:08 20° SE
Cosmos 1707 3.4 21:24:35 30° SE 21:25:49 38° E 21:29:28 10° NNE
STARLINK-1218 4.5 21:22:57 10° WNW 21:27:00 50° N 21:31:04 10° E
ATLAS 3B R/B 3.2 21:21:09 10° NW 21:27:48 56° NE 21:33:56 13° ESE
SL-27 R/B 2.9 21:24:36 10° NNW 21:28:08 54° WSW 21:29:28 32° SSW
NOSS 3-2 (C) 4.1 21:22:18 10° NW 21:29:48 79° SW 21:35:37 22° SSE
Cosmos 1726 3.3 21:28:09 10° N 21:31:32 32° ENE 21:32:50 25° ESE
STARLINK-1254 4.4 21:27:56 10° WNW 21:32:00 51° N 21:36:04 10° E
ALOS 2 4.0 21:30:24 18° ESE 21:32:44 28° ENE 21:36:29 10° N
Cosmos 1867 3.7 21:29:13 10° NW 21:34:42 73° NE 21:38:07 23° SE
COSMOS 2487 3.6 21:32:34 10° N 21:35:46 33° ENE 21:37:03 25° ESE
STARLINK-1231 4.4 21:32:55 10° WNW 21:37:00 53° NNE 21:41:03 10° E
Cosmos 1943 Rocket 2.5 21:33:06 10° SW 21:38:37 66° WNW 21:44:14 10° NNE
Cosmos 1992 Rocket 4.1 21:36:08 27° S 21:38:47 56° ESE 21:43:53 10° NNE
NOSS 3-4 (A) 3.6 21:36:31 22° S 21:40:10 50° ESE 21:46:14 10° NE
NOSS 3-4 (C) 3.6 21:36:40 22° S 21:40:16 49° ESE 21:46:20 10° NE
STARLINK-1232 4.3 21:37:55 10° WNW 21:42:01 54° NNE 21:46:05 10° E
SeaSat 1 2.8 21:37:51 10° NE 21:42:36 45° ESE 21:44:34 30° SSE
EO 1 Del DPAF 3.3 21:39:36 10° NNE 21:43:21 58° E 21:44:29 39° SSE
STARLINK-1208 4.3 21:42:53 10° WNW 21:46:59 56° NNE 21:51:04 10° E
Cosmos 1975 Rocket 4.1 21:44:36 14° SW 21:48:05 41° WNW 21:52:17 10° N
STARLINK-1212 2.7 21:47:04 10° WNW 21:50:11 88° SSW 21:50:47 55° ESE
STARLINK-1105 2.7 21:47:32 10° WNW 21:50:39 88° SSW 21:51:13 56° ESE
Meteor 2-10 3.9 21:46:16 10° N 21:51:20 75° ENE 21:53:43 31° SSE
STARLINK-1247 2.7 21:48:24 10° WNW 21:51:33 87° SSW 21:52:06 57° ESE
Cosmos 292 Rocket 3.9 21:48:20 19° SSW 21:51:48 75° WNW 21:56:42 10° NNE
STARLINK-1271 4.2 21:47:54 10° WNW 21:52:00 58° NNE 21:56:06 10° E
STARLINK-1227 2.7 21:48:54 10° WNW 21:52:01 86° SSW 21:52:33 58° ESE
BREEZE-M DEB (TANK) 3.2 21:40:20 10° WSW 21:52:29 88° S 21:55:55 10° E
STARLINK-1226 2.7 21:49:45 10° WNW 21:52:53 85° SSW 21:53:24 59° SE
BREEZE-M DEB (TANK) 2.8 21:49:31 10° W 21:53:14 90° ENE 21:57:23 10° ESE
STARLINK-1215 2.7 21:50:39 10° WNW 21:53:47 84° SSW 21:54:16 60° SE
RESURS DK-1 4.1 21:53:57 18° ESE 21:53:57 18° ESE 21:56:43 10° ENE
Cosmos 2227 Rocket 4.4 21:50:35 10° N 21:54:39 20° NE 21:58:43 10° E
S3M 3.9 21:48:29 10° N 21:54:41 85° E 21:58:11 28° S
Cosmos 2369 Rocket 2.5 21:49:09 10° SW 21:54:48 68° WNW 22:00:27 10° NNE
STARLINK-1217 2.7 21:52:28 10° WNW 21:55:36 82° SSW 21:56:00 64° SE
STARLINK-1229 2.7 21:53:23 10° WNW 21:56:31 81° SSW 21:56:54 65° SE
STARLINK-1154 4.1 21:52:53 10° WNW 21:57:00 60° NNE 22:01:00 11° E
STARLINK-1270 2.7 21:54:17 10° WNW 21:57:24 80° SSW 21:57:45 66° SE
STARLINK-1189 2.7 21:56:04 10° WNW 21:59:12 77° SSW 21:59:29 68° SSE
STARLINK-1188 2.7 21:56:59 10° WNW 22:00:07 76° SSW 22:00:22 69° SSE
ATLAS CENTAUR R/B 1.7 21:59:35 39° SSE 22:00:40 49° ESE 22:04:41 10° NE
Cosmos 1340 Rocket 2.9 21:57:07 10° N 22:01:10 68° ENE 22:02:31 40° SSE
STARLINK-1187 2.7 21:58:06 10° WNW 22:01:11 68° SSW 22:01:14 67° SSW
STARLINK-1197 4.0 21:57:50 10° WNW 22:01:58 62° NNE 22:05:45 12° E
STARLINK-1191 2.7 21:59:26 10° WNW 22:02:32 73° SSW 22:02:39 71° S
Aureole 3 3.3 21:59:54 10° N 22:03:01 42° ENE 22:03:24 39° E
STARLINK-1221 2.7 22:00:23 10° WNW 22:03:29 72° SSW 22:03:34 71° S
Thor Agena Rocket 3.6 21:58:49 10° NNE 22:04:09 86° WNW 22:07:12 26° SSW
STARLINK-1222 2.7 22:01:14 10° WNW 22:04:20 71° SSW 22:04:23 71° SSW
Cosmos 1025 Rocket 3.0 22:02:58 33° SSW 22:04:50 76° W 22:09:10 10° N
STARLINK-1214 2.7 22:02:08 10° WNW 22:05:13 70° SSW 22:05:15 70° SSW
Cosmos 1908 4.1 22:02:39 10° N 22:06:14 37° ENE 22:07:21 30° ESE
EXPRESS MD2 4.4 22:02:24 10° W 22:06:40 81° N 22:15:53 10° E
STARLINK-1198 4.0 22:02:49 10° WNW 22:06:57 65° NNE 22:10:32 13° E
Cosmos 1553 Rocket 4.3 22:01:56 10° NNW 22:08:06 59° W 22:11:43 25° SSW
Cosmos 1656 Rocket 3.6 22:04:50 24° SSW 22:08:22 85° ESE 22:13:58 10° NNE
ATLAS 2AS CENTAUR R/B 3.0 22:00:30 10° SSW 22:08:24 79° SE 22:16:21 10° NE
BREEZE M DEB (TANK) 1.9 22:05:59 10° W 22:08:32 65° NW 22:08:32 65° NW
Cosmos 1953 2.2 22:05:29 10° N 22:09:30 83° W 22:10:41 44° S
BREEZE-M DEB (TANK) 3.9 21:59:15 10° WNW 22:10:20 52° SW 22:11:56 35° SSE
Cosmos 1470 3.9 22:06:55 10° NNW 22:10:28 35° W 22:11:51 26° SW
STARLINK-1228 3.3 22:07:38 10° WNW 22:11:03 52° SSW 22:11:08 52° SSW
STARLINK-1199 3.9 22:07:49 10° WNW 22:11:58 67° NNE 22:15:20 15° ESE
STARLINK-1235 3.3 22:10:21 10° WNW 22:13:12 48° SW 22:13:12 48° SW
Cosmos 2292 Rocket 3.1 22:13:24 50° SE 22:14:02 61° E 22:17:12 10° NNE
Cosmos 968 Rocket 4.3 22:10:35 10° NW 22:15:22 40° WSW 22:17:31 27° SSW
STARLINK-1210 3.8 22:12:47 10° WNW 22:16:57 70° NNE 22:20:06 17° ESE
KORONAS-FOTON 4.5 22:17:21 36° ESE 22:18:02 40° E 22:21:40 10° NNE
Cosmos 1655 Rocket 4.0 22:15:01 26° SSW 22:18:45 79° W 22:25:04 10° N
SL-4 R/B 2.1 22:20:18 36° NNW 22:20:18 36° NNW 22:21:45 10° NNW
Cosmos 1777 Rocket 4.3 22:15:23 10° NNW 22:20:35 60° ENE 22:23:18 28° SE
STARLINK-1219 3.7 22:17:46 10° WNW 22:21:55 74° NNE 22:24:52 19° ESE
ATLAS 5 CENTAUR R/B 1.1 22:21:46 35° SW 22:23:03 85° SE 22:25:16 10° NE
STARLINK-52 3.3 22:26:27 49° E 22:26:27 49° E 22:29:01 10° ENE
Terra 4.1 22:23:31 10° WSW 22:26:11 15° W 22:28:52 10° NW
STARLINK-1211 3.7 22:22:46 10° WNW 22:26:56 77° NNE 22:29:40 21° ESE
Cosmos 2228 3.2 22:23:02 10° N 22:27:15 60° ENE 22:28:36 39° SE
SL-4 R/B 2.3 22:22:48 10° WSW 22:27:38 86° SSE 22:32:29 10° ENE
Cosmos 1726 Rocket 4.0 22:23:47 10° N 22:28:00 51° ENE 22:29:31 34° SE
Meteor 2-15 4.4 22:21:52 10° N 22:28:02 87° W 22:31:06 32° S
STARLINK-1234 4.3 22:28:11 10° WNW 22:30:17 28° WSW 22:30:17 28° WSW
STARLINK-1245 3.6 22:27:44 10° WNW 22:31:54 81° NNE 22:34:26 23° ESE
Cosmos 1300 4.3 22:28:57 10° NNE 22:32:12 26° ENE 22:33:33 21° ESE
In-Cosmos 22 4.0 22:30:05 32° SSW 22:32:35 83° WNW 22:37:55 10° N
Cosmos 921 Rocket 4.2 22:31:52 26° ESE 22:32:36 27° E 22:36:17 10° NE
Meteor 1-24 Rocket 4.5 22:33:05 27° SE 22:35:11 37° E 22:40:10 10° NNE
STARLINK-1233 3.6 22:32:41 10° WNW 22:36:52 85° NNE 22:39:11 25° ESE
Cosmos 2266 Rocket 4.0 22:33:43 29° SSW 22:37:01 78° W 22:43:06 10° N
STARLINK-1204 3.5 22:37:40 10° WNW 22:41:51 89° NE 22:43:59 28° ESE
SJ 16-02 3.4 22:40:09 10° N 22:43:38 22° NE 22:47:07 10° ESE
STARLINK-1238 3.5 22:42:41 10° WNW 22:46:51 86° SSW 22:48:47 31° ESE
Meteor 2-15 Rocket 4.4 22:41:48 10° NNW 22:47:57 78° W 22:50:55 33° S
STARLINK-1239 4.5 22:44:54 10° WNW 22:48:58 51° NNE 22:53:01 10° E
Cosmos 1674 2.6 22:48:20 53° SSW 22:49:08 80° W 22:52:57 10° N
Helios 1B rocket 3.8 22:45:47 10° NE 22:49:15 25° E 22:50:09 23° ESE
STARLINK-1377 4.4 22:52:00 32° ESE 22:52:00 32° ESE 22:54:40 10° ENE
STARLINK-1201 3.5 22:47:39 10° WNW 22:51:49 82° SSW 22:53:33 34° SE
STARLINK-1240 4.4 22:49:53 10° WNW 22:53:57 52° NNE 22:58:00 10° E
STARLINK-1353 4.2 22:55:17 34° ESE 22:55:17 34° ESE 22:58:05 10° ENE
STARLINK-60 3.8 22:53:10 10° W 22:56:17 49° NNW 22:59:25 10° ENE
STARLINK-1206 3.5 22:52:39 10° WNW 22:56:49 77° SSW 22:58:21 37° SE
COSMOS 2455 3.0 22:52:50 21° SW 22:57:03 74° NW 23:03:07 10° NNE
USA 215 3.2 22:52:56 20° SE 22:57:43 71° SW 23:04:15 10° WNW
STARLINK-1375 4.1 22:58:33 37° ESE 22:58:33 37° ESE 23:01:31 10° ENE
Cosmos 2219 3.7 22:52:49 10° NNW 22:58:26 57° ENE 23:02:17 20° SE
STARLINK-1216 4.4 22:54:51 10° WNW 22:58:56 54° NNE 23:03:00 10° E
STARLINK-1203 4.4 22:54:56 10° WNW 22:59:05 54° NNE 23:03:12 10° E
STARLINK-1352 4.1 23:01:56 36° ESE 23:01:56 36° ESE 23:04:40 10° ENE
STARLINK-1350 3.9 23:01:49 41° ESE 23:01:49 41° ESE 23:04:56 10° ENE
STARLINK-1205 3.5 22:57:37 10° WNW 23:01:46 73° SSW 23:03:07 41° SE
Cosmos 2297 Rocket 2.9 22:57:10 10° NNW 23:02:41 51° NE 23:07:00 16° SE
Helios 1A 3.0 23:01:35 46° S 23:02:42 69° WSW 23:06:54 10° NNW
STARLINK-1237 4.3 22:59:51 10° WNW 23:03:57 55° NNE 23:08:01 10° E
Lacrosse 4 Rocket 3.7 23:02:44 10° NNW 23:06:16 23° NE 23:09:43 10° E
Cosmos 1726 3.9 23:03:46 10° NW 23:06:33 20° W 23:07:20 19° WSW
PSLV R/B 4.4 23:02:22 10° NNE 23:06:36 39° E 23:07:54 31° SE
STARLINK-1218 3.5 23:02:37 10° WNW 23:06:45 68° SSW 23:07:55 44° SE
STARLINK-1368 3.7 23:08:27 47° SE 23:08:27 47° SE 23:11:53 10° ENE
STARLINK-1202 4.2 23:04:50 10° WNW 23:08:56 57° NNE 23:13:01 10° E
ALOS 2 3.5 23:07:47 30° SW 23:08:57 35° W 23:13:01 10° NNW
Timation 2 Rocket 4.0 23:03:48 10° NW 23:10:04 67° WSW 23:12:55 33° S
Cosmos 2058 Rocket 3.0 23:06:03 10° N 23:10:32 89° E 23:11:58 43° S
COSMOS 2487 4.3 23:08:07 10° NW 23:10:32 18° W 23:10:32 18° W
STARLINK-1369 3.5 23:11:47 51° SE 23:11:47 51° SE 23:15:22 10° ENE
STARLINK-1254 3.5 23:07:36 10° WNW 23:11:43 64° SSW 23:12:41 47° SSE
Meteor 1-29 4.5 23:10:39 10° NE 23:13:27 24° E 23:13:48 23° ESE
CENTAUR R/B 4.2 23:08:04 10° WNW 23:14:46 28° WSW 23:18:17 22° SW
STARLINK-1372 3.4 23:15:07 54° SSE 23:15:10 54° SSE 23:18:53 10° ENE
STARLINK-1231 3.6 23:12:35 10° WNW 23:16:41 59° SSW 23:17:27 49° SSE
Meteor 2-5 Rocket 3.7 23:14:12 34° SSW 23:16:46 80° WNW 23:22:26 10° N
ATLAS 3B R/B 3.2 23:12:03 10° NW 23:18:23 42° WSW 23:21:10 30° SSW
STARLINK-1378 3.4 23:18:28 56° SSE 23:18:38 57° SSE 23:22:23 10° ENE
STARLINK-1246 4.1 23:14:49 10° WNW 23:18:56 61° NNE 23:23:03 10° E
SeaSat 1 3.8 23:15:34 10° NNE 23:20:01 34° NW 23:24:21 10° WSW
SL-14 R/B 3.1 23:19:11 54° S 23:20:01 82° E 23:23:53 10° NNE
Cosmos 1606 Rocket 4.4 23:16:26 10° NNW 23:20:27 38° W 23:21:37 31° SW
FALCON 9 DEB 3.2 23:20:07 40° WSW 23:21:15 78° NNW 23:24:42 10° ENE
STARLINK-1232 3.6 23:17:35 10° WNW 23:21:39 55° SW 23:22:15 50° S
STARLINK-1379 3.3 23:21:52 58° S 23:22:09 60° SSE 23:25:54 10° ENE
STARLINK-1329 3.3 23:23:14 57° S 23:23:36 61° SSE 23:27:22 10° ENE
STARLINK-1224 4.0 23:19:47 10° WNW 23:23:55 64° NNE 23:28:02 10° E
Meteor 2-21 4.4 23:20:59 32° SSW 23:24:04 82° W 23:30:20 10° N
SL-16 R/B 4.1 23:20:47 10° ESE 23:26:03 31° ENE 23:31:20 10° N
STARLINK-29 3.7 23:24:02 18° W 23:26:10 52° NNW 23:29:18 10° ENE
STARLINK-1208 3.7 23:22:33 10° WNW 23:26:36 52° SW 23:27:00 49° SSW
STARLINK-1362 3.3 23:26:40 57° SSW 23:27:11 65° SSE 23:30:58 10° ENE
ATLAS CENTAUR R/B 1.4 23:26:28 10° NW 23:28:44 70° NE 23:33:10 10° ESE
STARLINK-1225 3.9 23:24:47 10° WNW 23:28:56 66° NNE 23:33:03 10° ESE
Cosmos 1656 4.3 23:27:53 29° SSE 23:30:06 43° ESE 23:35:23 10° NE
STARLINK-1373 3.3 23:30:05 54° SSW 23:30:44 68° SSE 23:34:33 10° ENE
NOSS 3-4 (A) 4.5 23:25:23 10° WSW 23:31:10 45° NW 23:37:24 10° NE
NOSS 3-4 (C) 4.4 23:25:28 10° WSW 23:31:15 45° NW 23:37:30 10° NE
RESURS DK-1 2.9 23:29:48 31° WSW 23:31:33 54° WNW 23:35:38 10° NNE
STARLINK-1271 3.8 23:27:35 10° WNW 23:31:35 48° SW 23:31:49 47° SSW
STARLINK-1365 3.3 23:31:12 52° SW 23:31:59 71° SSE 23:35:49 10° ENE
STARLINK-1230 3.9 23:29:45 10° WNW 23:33:54 69° NNE 23:38:02 10° ESE
STARLINK-1390 3.3 23:33:34 52° SW 23:34:21 72° SSE 23:38:10 10° ENE
Cosmos 1697 Rocket 4.0 23:32:47 20° SE 23:35:11 27° ESE 23:39:53 10° NE
Cosmos 2084 3.7 23:33:37 30° SW 23:35:44 72° NW 23:40:14 10° NE
STARLINK-1154 3.9 23:32:34 10° WNW 23:36:32 45° SW 23:36:35 45° SW
Cosmos 1812 Rocket 4.2 23:32:23 10° N 23:36:46 51° ENE 23:38:55 27° SE
Cosmos 1626 2.3 23:36:00 46° SW 23:36:50 60° WNW 23:40:32 10° N
BREEZE-M R/B 3.3 23:31:44 14° SW 23:37:22 58° SSE 23:40:53 10° E
STARLINK-1243 3.8 23:34:45 10° WNW 23:38:55 73° NNE 23:43:03 10° ESE
Okean 1-7 Rocket 3.9 23:37:39 36° SW 23:39:17 58° WNW 23:43:47 10° N
Cosmos 990 Rocket 4.4 23:34:17 10° NNW 23:39:31 61° ENE 23:43:09 20° SE
Cosmos 2227 Rocket 2.3 23:33:57 10° NNW 23:39:40 80° ENE 23:43:29 22° SSE
ATLAS CENTAUR R/B 3.2 23:36:01 10° W 23:39:45 28° NW 23:43:18 10° NNE
STARLINK-1197 4.0 23:37:33 10° WNW 23:41:21 41° SW 23:41:21 41° SW
CZ-4 R/B 3.7 23:37:08 10° NNE 23:41:57 88° WNW 23:43:50 37° SSW
STARLINK-1236 3.7 23:39:43 10° WNW 23:43:53 76° NNE 23:48:02 10° ESE
STARLINK-1198 4.2 23:42:33 10° WNW 23:46:07 38° SW 23:46:07 38° SW
Cosmos 1602 Rocket 3.7 23:47:23 36° SSE 23:48:56 62° E 23:53:13 10° NNE
SL-08 ROCKET BODY 4.3 23:46:46 31° S 23:49:45 79° E 23:55:37 10° NNE
STARLINK-1199 4.3 23:47:35 10° WNW 23:50:55 35° SW 23:50:55 35° SW
STARLINK-1269 3.6 23:49:41 10° WNW 23:53:52 84° NNE 23:58:01 10° ESE
